Regional Weather Roundup
Issued by NWS

Home | Current Version | Previous Version | Text Only | Print | Product List | Glossary Off
Versions: 1 2 3 4 5 6 7 8 9 10 11 12 13 14 15 16 17 18 19 20 21 22 23 24 25 26 27 28 29 30 31 32 33 34 35 36 37 38 39 40 41 42 43 44 45 46 47 48 49 50

000
ASUS43 KMKX 240720
RWRWI

WISCONSIN REGIONAL WEATHER ROUNDUP
NATIONAL WEATHER SERVICE MILWAUKEE/SULLIVAN WI
200 AM CDT TUE APR 24 2018

NOTE: "FAIR" INDICATES FEW OR NO CLOUDS BELOW 12,000 FEET WITH NO
SIGNIFICANT WEATHER AND/OR OBSTRUCTIONS TO VISIBILITY.

WIZ001-002-006>008-014>016-023>028-240800-
NORTHWEST WISCONSIN

CITY           SKY/WX    TMP DP  RH WIND       PRES   REMARKS
SUPERIOR ARPT  FAIR      38  34  84 SE3       30.14R
ASHLAND        FAIR      45  30  55 W7        30.12R
HAYWARD        FAIR      33  27  78 CALM      30.14R
SIREN          FAIR      37  31  79 CALM      30.13F
CUMBERLAND     FAIR      36  30  80 CALM      30.13S
RICE LAKE      FAIR      36  33  90 CALM      30.15S
CHETEK         FAIR      36  32  87 N3        30.14R
LADYSMITH      FAIR      36  30  79 CALM      30.15S
EAU CLAIRE     FAIR      41  33  73 CALM      30.12F
MENOMONIE      FAIR      42  34  72 W3        30.13S
NEW RICHMOND   FAIR      38  34  84 CALM      30.14S
OSCEOLA        FAIR      39  34  81 CALM      30.16S
$$

WIZ003>005-009-010-017-018-240800-
NORTH CENTRAL WISCONSIN

CITY           SKY/WX    TMP DP  RH WIND       PRES   REMARKS
MANITOWISH WTR FAIR      31  27  84 CALM      30.13S
ARBOR VITAE    FAIR      37  29  74 CALM      30.13S
WOODRUFF       FAIR      37  29  74 CALM      30.13S
RHINELANDER    FAIR      36  27  69 CALM      30.13
EAGLE RIVER    FAIR      31  25  80 CALM      30.12S
LAND O LAKES   FAIR      30  26  84 CALM      30.14F
PHILLIPS       FAIR      32  28  87 CALM      30.13S
TOMAHAWK       FAIR      30  25  83 CALM      30.14S
MEDFORD        FAIR      35  30  83 CALM      30.13S
MERRILL        FAIR      32  27  80 CALM      30.14S
$$

WIZ029-030-035-036-043>047-240800-
CENTRAL WISCONSIN

CITY           SKY/WX    TMP DP  RH WIND       PRES   REMARKS
WAUSAU         FAIR      38  29  70 CALM      30.12
MOSINEE        FAIR      41  27  56 CALM      30.14S
MARSHFIELD     FAIR      42  28  57 W5        30.12
STEVENS POINT  FAIR      32  24  74 CALM      30.13F
WAUPACA        FAIR      36  31  81 N3        30.13S
WAUTOMA        FAIR      35  31  85 CALM      30.13
WISC RAPIDS    FAIR      39  29  67 CALM      30.14
CAMP DOUGLAS   NOT AVBL
$$

WIZ011>013-019>022-031-037>040-048>050-240800-
NORTHEAST WISCONSIN

CITY           SKY/WX    TMP DP  RH WIND       PRES   REMARKS
ANTIGO         FAIR      33  29  88 N3        30.14S
SHAWANO        FAIR      35  31  84 CALM      30.12F
OCONTO         FAIR      34  32  93 CALM      30.12F
STURGEON BAY   FAIR      41  27  57 NW5       30.12
GREEN BAY      FAIR      41  33  73 NW3       30.11F
MANITOWOC      FAIR      44  32  62 NW5       30.11S
APPLETON       FAIR      45  25  45 N5        30.10F
CLINTONVILLE   FAIR      34  28  79 CALM      30.13S
OSHKOSH        FAIR      41  32  70 CALM      30.11F
$$

WIZ032>034-041-042-053>061-240800-
SOUTHWEST WISCONSIN

CITY           SKY/WX    TMP DP  RH WIND       PRES   REMARKS
LA CROSSE      FAIR      47  34  60 E3        30.13S
SPARTA         FAIR      33  29  85 CALM      30.14S
VIROQUA        FAIR      47  30  50 CALM      30.12S
BOSCOBEL       FAIR      39  32  76 CALM      30.13R
PRAIRIE DU CHI FAIR      42  31  65 CALM      30.12S
PLATTEVILLE    FAIR      48  33  55 NE9       30.11S
$$

WIZ056-057-062-063-064-067-068-240800-
SOUTH CENTRAL WISCONSIN

CITY           SKY/WX    TMP DP  RH WIND       PRES   REMARKS
REEDSBURG      FAIR      40  33  75 CALM      30.12S
BARABOO/DELLS  FAIR      40  30  67 CALM      30.11S
LONE ROCK      FAIR      37  32  82 CALM      30.12S
MINERAL POINT  FAIR      50  32  50 CALM      30.11S
MADISON        FAIR      41  32  70 CALM      30.10F
MIDDLETON      FAIR      39  36  87 CALM      30.11S
WATERTOWN      FAIR      42  36  78 CALM      30.10S
MONROE         FAIR      48  30  49 NE8       30.10S
JANESVILLE     FAIR      45  34  65 CALM      30.10F
$$

WIZ051-052-058>065-066-070>072-240800-
SOUTHEAST WISCONSIN

CITY           SKY/WX    TMP DP  RH WIND       PRES   REMARKS
MILWAUKEE      MOCLDY    48  31  51 CALM      30.09F
WAUKESHA       FAIR      45  28  53 NW3       30.10F
MILWAUKEE/TIMM FAIR      45  27  49 CALM      30.10F
RACINE         MOCLDY    46  31  55 NW3       30.09F
BURLINGTON     FAIR      45  33  62 CALM      30.09F
KENOSHA        MOCLDY    48  30  49 NW6       30.07F
FOND DU LAC    FAIR      40  35  83 NW3       30.10F
SHEBOYGAN      FAIR      45  33  63 N7        30.09F
WEST BEND      FAIR      43  30  61 CALM      30.10S
JUNEAU         FAIR      46  28  51 CALM      30.11S
$$

LSZ147-162-240800-
LAKE SUPERIOR

STATION/POSITION TIME  TEMP    WIND        PRES    WAVE
                       AIR SEA DIR/SP/G            HT/PER
                 (UTC) (F)     (DEG/KT/KT) (MB)    (FT/S)
DEVILS ISLAND    0700   47      10/ 11/ 12 1020.7R
SAXON HARBOR     0640   45     290/  2/  9 1019.3R
$$

LMZ867-665-643>646-240800-
LAKE MICHIGAN

STATION/POSITION TIME  TEMP    WIND        PRES    WAVE
                       AIR SEA DIR/SP/G            HT/PER
                 (UTC) (F)     (DEG/KT/KT) (MB)    (FT/S)
NORTHPORT PIER   0640   38                 1020.0F
KEWAUNEE LAKESHO 0700   41     280/  4/  5 1018.9
SHEBOYGAN LAKESH 0700   49     340/ 10/ 12 1019.2F
PORT WASHINGTON  0640   49     320/  8/ 11 1019.6F
MILWAUKEE LAKESH 0700   46     350/  3/  5   N/A
KENOSHA   LAKESH 0700   47                 1018.6
$$

TC  - TEMPERATURE IN CELSIUS
VSB - VISIBILITY IN STATUTE MILES
WCI - WIND CHILL INDEX
HX  - HEAT INDEX




USA.gov is the U.S. government's official web portal to all federal, state and local government web resources and services.